Torna al catalogo

KUIPER-00428

AttivoComunicazioniVLEO
NORAD 69593·PAYLOAD·🇺🇸 United States

Lanciato Jun 17, 2026 da Guiana Space Centre

Loading…

Prossimi Passaggi (prossime 24 ore)

TLE

AggiornatoSource: CelesTrak SupGP

Epoca: Sep 14, 2026, 19:53 UTC

1 69593C 26140B   26257.82863426  .00004013  00000+0  10603-3 0  2573
2 69593  51.8810 325.5246 0005414 250.8923   7.3623 15.37812463    19

Traccia KUIPER-00428 in tempo reale con AllMySat

Download on the App Store